This is the latest recevied weather packets stored in our database for station/object YO4ISC-13. If no packets are shown the sender has not sent any weather packets the latest 10 day(s).
| Time | Temp. | Humidity | Pressure | Rain* | Wind** | Luminosity | Snow |
|---|---|---|---|---|---|---|---|
| 1777803002 | 13.33° C | 53% | 1023 hPa | - | - | - | - |
| 1777802401 | 13.33° C | 52% | 1023 hPa | - | - | - | - |
| 1777801802 | 13.33° C | 54% | 1023 hPa | - | - | - | - |
| 1777801201 | 12.78° C | 51% | 1023 hPa | - | - | - | - |
| 1777800602 | 13.33° C | 53% | 1023 hPa | - | - | - | - |
| 1777800001 | 12.78° C | 56% | 1023 hPa | - | - | - | - |
| 1777799402 | 13.33° C | 56% | 1023 hPa | - | - | - | - |
| 1777798802 | 12.78° C | 58% | 1023 hPa | - | - | - | - |
| 1777798202 | 12.78° C | 59% | 1023 hPa | - | - | - | - |
| 1777797602 | 12.78° C | 59% | 1023 hPa | - | - | - | - |
| 1777797001 | 12.78° C | 62% | 1023 hPa | - | - | - | - |
| 1777796402 | 12.78° C | 60% | 1023 hPa | - | - | - | - |
| 1777795801 | 12.78° C | 64% | 1023 hPa | - | - | - | - |
| 1777795202 | 12.22° C | 65% | 1023 hPa | - | - | - | - |
| 1777794601 | 12.22° C | 69% | 1023 hPa | - | - | - | - |
| 1777794002 | 12.22° C | 71% | 1023 hPa | - | - | - | - |
| 1777793402 | 11.67° C | 73% | 1023 hPa | - | - | - | - |
| 1777792802 | 11.67° C | 74% | 1023 hPa | - | - | - | - |
| 1777792202 | 11.11° C | 76% | 1023 hPa | - | - | - | - |
| 1777791602 | 11.11° C | 78% | 1023 hPa | - | - | - | - |
| 1777791002 | 10.56° C | 78% | 1023 hPa | - | - | - | - |
| 1777790401 | 10.56° C | 78% | 1022 hPa | - | - | - | - |
| 1777789802 | 10.56° C | 78% | 1023 hPa | - | - | - | - |
| 1777789201 | 10.56° C | 79% | 1023 hPa | - | - | - | - |
| 1777788602 | 10° C | 81% | 1022 hPa | - | - | - | - |
* Rain since midnight (hover to see other rain measurements)
** Current wind speed in m/s (hover to see current wind gust speed)